• In Deutschland
  • Länderverzeichnis
  • Für 7 Tage
  • Wassertemperatur
  • Satellitenkarten
  • Wetterkarte
  • Widgets
  • user-avatar
    Anmelden

    Stündliche Wetter Ushuaia

    Heute, 21 Juni, Donnerstag

    Zeit Temperatur Niederschläge Wind Luftdruck Luftfeuchtigkeit
    00:00 -4°C° 0,1 mm 6 m/S 719 mmHg 67%
    01:00 -4°C° 0 mm 6 m/S 719 mmHg 66%
    02:00 -4°C° 0,1 mm 6 m/S 719 mmHg 65%
    03:00 -4°C° 0,1 mm 7 m/S 720 mmHg 64%
    04:00 -4°C° 0,1 mm 7 m/S 720 mmHg 63%
    05:00 -4°C° 0,1 mm 7 m/S 721 mmHg 63%
    06:00 -6°C° 0,1 mm 7 m/S 721 mmHg 62%
    07:00 -4°C° 0 mm 7 m/S 721 mmHg 63%
    08:00 -4°C° 0,1 mm 7 m/S 722 mmHg 62%
    09:00 -5°C° 0,1 mm 8 m/S 722 mmHg 62%
    10:00 -5°C° 0,1 mm 8 m/S 723 mmHg 61%
    11:00 -5°C° 0,1 mm 8 m/S 723 mmHg 61%
    12:00 -5°C° 0,1 mm 8 m/S 723 mmHg 61%
    13:00 -4°C° 0,1 mm 7 m/S 723 mmHg 61%
    14:00 -4°C° 0,1 mm 6 m/S 723 mmHg 64%
    15:00 -4°C° 0,1 mm 6 m/S 724 mmHg 66%
    16:00 -5°C° 0,1 mm 5 m/S 724 mmHg 69%
    17:00 -4°C° 0,1 mm 4 m/S 723 mmHg 71%
    18:00 -4°C° 0,1 mm 4 m/S 723 mmHg 74%
    19:00 -4°C° 0,1 mm 4 m/S 722 mmHg 76%
    20:00 -4°C° 0,6 mm 4 m/S 722 mmHg 77%
    21:00 -5°C° 0,6 mm 5 m/S 721 mmHg 78%
    22:00 -5°C° 0,6 mm 6 m/S 721 mmHg 79%
    23:00 -5°C° 0,3 mm 6 m/S 721 mmHg 76%

    Morgen, 22 Juni, Freitag

    Zeit Temperatur Niederschläge Wind Luftdruck Luftfeuchtigkeit
    00:00 -6°C° 0,3 mm 6 m/S 721 mmHg 74%
    01:00 -6°C° 0,3 mm 6 m/S 721 mmHg 71%
    02:00 -8°C° 0,5 mm 7 m/S 721 mmHg 72%
    03:00 -8°C° 0,5 mm 7 m/S 721 mmHg 73%
    04:00 -10°C° 0,5 mm 8 m/S 721 mmHg 74%
    05:00 -9°C° 0,3 mm 7 m/S 721 mmHg 74%
    06:00 -9°C° 0,3 mm 7 m/S 721 mmHg 75%
    07:00 -9°C° 0,3 mm 6 m/S 721 mmHg 75%
    08:00 -8°C° 0,4 mm 6 m/S 722 mmHg 76%
    09:00 -8°C° 0,4 mm 6 m/S 723 mmHg 77%
    10:00 -6°C° 0,4 mm 6 m/S 723 mmHg 79%
    11:00 -7°C° 0,6 mm 7 m/S 725 mmHg 76%
    12:00 -7°C° 0,6 mm 7 m/S 726 mmHg 73%
    13:00 -6°C° 0,6 mm 7 m/S 727 mmHg 71%
    14:00 -6°C° 0,1 mm 6 m/S 729 mmHg 71%
    15:00 -6°C° 0,1 mm 5 m/S 730 mmHg 72%
    16:00 -5°C° 0,1 mm 4 m/S 731 mmHg 73%
    17:00 -5°C° 0 mm 4 m/S 731 mmHg 73%
    18:00 -5°C° 0 mm 4 m/S 732 mmHg 74%
    19:00 -7°C° 0 mm 4 m/S 733 mmHg 75%
    20:00 -5°C° 0,1 mm 4 m/S 733 mmHg 75%
    21:00 -6°C° 0,1 mm 5 m/S 733 mmHg 74%
    22:00 -6°C° 0,1 mm 5 m/S 734 mmHg 74%
    23:00 -6°C° 0,1 mm 5 m/S 734 mmHg 75%

    übermorgen, 23 Juni, Samstag

    Zeit Temperatur Niederschläge Wind Luftdruck Luftfeuchtigkeit
    00:00 -6°C° 0,1 mm 5 m/S 734 mmHg 76%
    01:00 -6°C° 0,1 mm 5 m/S 735 mmHg 76%
    02:00 -6°C° 0,2 mm 5 m/S 735 mmHg 77%
    03:00 -6°C° 0,2 mm 6 m/S 735 mmHg 77%
    04:00 -6°C° 0,2 mm 6 m/S 735 mmHg 78%
    05:00 -6°C° 0,2 mm 6 m/S 736 mmHg 77%
    06:00 -6°C° 0,2 mm 6 m/S 736 mmHg 77%
    07:00 -6°C° 0,2 mm 6 m/S 736 mmHg 76%
    08:00 -6°C° 0 mm 5 m/S 736 mmHg 76%
    09:00 -6°C° 0 mm 5 m/S 737 mmHg 75%
    10:00 -6°C° 0 mm 5 m/S 737 mmHg 74%
    11:00 -5°C° 0 mm 5 m/S 736 mmHg 74%
    12:00 -4°C° 0 mm 4 m/S 736 mmHg 73%
    13:00 -4°C° 0 mm 4 m/S 736 mmHg 72%
    14:00 -5°C° 0 mm 3 m/S 736 mmHg 75%
    15:00 -6°C° 0 mm 3 m/S 735 mmHg 78%
    16:00 -5°C° 0 mm 2 m/S 735 mmHg 81%
    17:00 -5°C° 0 mm 2 m/S 734 mmHg 81%
    18:00 -5°C° 0 mm 2 m/S 733 mmHg 81%
    19:00 -5°C° 0 mm 2 m/S 732 mmHg 81%
    20:00 -5°C° 0,2 mm 2 m/S 731 mmHg 83%
    21:00 -5°C° 0,2 mm 3 m/S 730 mmHg 85%
    22:00 -5°C° 0,2 mm 3 m/S 728 mmHg 87%
    23:00 -4°C° 0,3 mm 3 m/S 727 mmHg 88%

    24 Juni, Sonntag

    Zeit Temperatur Niederschläge Wind Luftdruck Luftfeuchtigkeit
    00:00 -4°C° 0,3 mm 3 m/S 726 mmHg 90%
    01:00 -2°C° 0,3 mm 3 m/S 725 mmHg 91%
    02:00 -2°C° 0,2 mm 3 m/S 724 mmHg 91%
    03:00 -2°C° 0,2 mm 3 m/S 723 mmHg 92%
    04:00 -1°C° 0,2 mm 2 m/S 721 mmHg 92%
    05:00 -1°C° 0,2 mm 2 m/S 721 mmHg 92%
    06:00 -1°C° 0,2 mm 2 m/S 721 mmHg 93%
    07:00 -1°C° 0,2 mm 2 m/S 721 mmHg 93%
    08:00 +1°C° 0,2 mm 2 m/S 721 mmHg 92%
    09:00 0°C° 0,2 mm 3 m/S 721 mmHg 91%
    10:00 +1°C° 0,2 mm 3 m/S 721 mmHg 90%
    11:00 +1°C° 0 mm 3 m/S 722 mmHg 89%
    12:00 +2°C° 0 mm 2 m/S 722 mmHg 88%
    13:00 +2°C° 0 mm 2 m/S 722 mmHg 88%
    14:00 +1°C° 0 mm 2 m/S 722 mmHg 89%
    15:00 +1°C° 0 mm 2 m/S 722 mmHg 90%
    16:00 -1°C° 0 mm 2 m/S 723 mmHg 91%
    17:00 -1°C° 0 mm 2 m/S 723 mmHg 90%
    18:00 -1°C° 0 mm 2 m/S 724 mmHg 90%
    19:00 -1°C° 0 mm 3 m/S 724 mmHg 90%
    20:00 -1°C° 0 mm 3 m/S 725 mmHg 90%
    21:00 -1°C° 0 mm 2 m/S 725 mmHg 89%
    22:00 -1°C° 0 mm 2 m/S 725 mmHg 89%
    23:00 -2°C° 0 mm 2 m/S 726 mmHg 90%

    25 Juni, Montag

    Zeit Temperatur Niederschläge Wind Luftdruck Luftfeuchtigkeit
    00:00 -2°C° 0 mm 2 m/S 726 mmHg 90%
    01:00 -2°C° 0 mm 2 m/S 726 mmHg 91%
    02:00 -3°C° 0 mm 2 m/S 726 mmHg 91%
    03:00 -1°C° 0 mm 1 m/S 726 mmHg 91%
    04:00 -1°C° 0 mm 1 m/S 726 mmHg 90%
    05:00 -1°C° 0 mm 1 m/S 726 mmHg 90%
    06:00 -1°C° 0 mm 1 m/S 725 mmHg 90%
    07:00 -3°C° 0 mm 2 m/S 725 mmHg 90%
    08:00 -3°C° 0 mm 2 m/S 725 mmHg 89%
    09:00 -2°C° 0 mm 2 m/S 724 mmHg 88%
    10:00 -1°C° 0 mm 2 m/S 724 mmHg 87%
    11:00 -1°C° 0,3 mm 3 m/S 723 mmHg 88%
    12:00 -1°C° 0,3 mm 3 m/S 722 mmHg 89%
    13:00 0°C° 0,3 mm 3 m/S 722 mmHg 89%
    14:00 0°C° 0,3 mm 3 m/S 721 mmHg 90%
    15:00 0°C° 0,3 mm 3 m/S 721 mmHg 91%
    16:00 0°C° 0,3 mm 3 m/S 720 mmHg 91%
    17:00 0°C° 0,1 mm 3 m/S 719 mmHg 92%
    18:00 -1°C° 0,1 mm 2 m/S 719 mmHg 92%
    19:00 -1°C° 0,1 mm 2 m/S 719 mmHg 93%
    20:00 -1°C° 0 mm 2 m/S 718 mmHg 93%
    21:00 -2°C° 0 mm 2 m/S 717 mmHg 93%
    22:00 -2°C° 0 mm 2 m/S 717 mmHg 93%
    23:00 -2°C° 0,1 mm 3 m/S 716 mmHg 92%

    26 Juni, Dienstag

    Zeit Temperatur Niederschläge Wind Luftdruck Luftfeuchtigkeit
    00:00 -1°C° 0,1 mm 3 m/S 715 mmHg 91%
    01:00 -1°C° 0,1 mm 3 m/S 715 mmHg 91%
    02:00 -1°C° 0,1 mm 3 m/S 714 mmHg 91%
    03:00 -1°C° 0,1 mm 3 m/S 714 mmHg 90%
    04:00 -1°C° 0,1 mm 3 m/S 714 mmHg 90%
    05:00 0°C° 0,1 mm 3 m/S 713 mmHg 90%
    06:00 0°C° 0,1 mm 3 m/S 713 mmHg 91%
    07:00 0°C° 0,1 mm 3 m/S 713 mmHg 91%
    08:00 +1°C° 0,2 mm 3 m/S 713 mmHg 90%
    09:00 +1°C° 0,2 mm 3 m/S 713 mmHg 90%
    10:00 +2°C° 0,2 mm 3 m/S 713 mmHg 89%
    11:00 +1°C° 0,2 mm 4 m/S 714 mmHg 88%
    12:00 +1°C° 0,2 mm 4 m/S 714 mmHg 87%
    13:00 +1°C° 0,2 mm 5 m/S 714 mmHg 85%
    14:00 0°C° 0,1 mm 4 m/S 714 mmHg 85%
    15:00 0°C° 0,1 mm 4 m/S 715 mmHg 85%
    16:00 -1°C° 0,1 mm 4 m/S 715 mmHg 84%
    17:00 -1°C° 0 mm 4 m/S 716 mmHg 85%
    18:00 -1°C° 0 mm 3 m/S 716 mmHg 86%
    19:00 -1°C° 0 mm 3 m/S 717 mmHg 88%
    20:00 -2°C° 0 mm 3 m/S 717 mmHg 89%
    21:00 -2°C° 0 mm 3 m/S 717 mmHg 90%
    22:00 -2°C° 0 mm 3 m/S 717 mmHg 91%
    23:00 -2°C° 0 mm 3 m/S 717 mmHg 90%
    Mehr zeigen